sat.trackr.live / text

‹ back to catalog

STARLINK-3068

NORAD 49154 · 2021-082AA

PAYLOAD ACTIVE UNKNOWN

§ Identity

Operator
Country
US
Launch date
2021-09-14
Launch site
AFWTR
Launch vehicle
Mass (kg)
RCS (m²)

Purposes: comms

External: N2YO · Heavens-Above · Gunter

§ Orbital elements

Epoch: 2026-09-14T02:11:25.994112Z

Period
96.16 min
Inclination
69.9997°
Eccentricity
0.0002948
Mean motion
14.97522819 rev/d
Perigee alt
572.5 km
Apogee alt
576.6 km
Semi-major
6,952.7 km
B*
8.5366e-6
RAAN
160.8020°
Arg perigee
270.5391°
Mean anomaly
89.5429°
Rev number
27,573

§ Raw data

STARLINK-30681 49154U 21082AA  26257.09127308  .00000007  00000+0  85366-5 0  99972 49154  69.9997 160.8020 0002948 270.5391  89.5429 14.97522819275730

JSON: /api/v1/satellites/49154 · /tle

For live sub-satellite position, see the globe view (requires WebGL).

§ Visibility from observer

Set your observer location to see the next 7 days of passes ≥ 10°. The values pass through the URL so the page stays shareable.

No JS? Fill the form by hand. The geolocation button needs JavaScript.